User: anonymous   Login
Location: Mat�lon
(46.2791°N, 7.1028°E)
Time: 01:56:42
(UTC+00:00)
Language:

Ariane Rocket - Orbit

View from above orbital plane
View from above orbital plane
View from above satellite
View from above satellite

Ground track
Ground track

The orbit data is extracted from the following two-line orbital elements,

1 23561U 95021B   20328.36849977 +.00000054 +00000-0 +33013-4 0  9995
2 23561 098.7056 009.8474 0007726 137.3854 233.1950 14.37993651341413
Epoch (UTC): 23 November 2020 08:50:38
Eccentricity: 0.0007726
inclination: 98.7056°
perigee height: 759 km
apogee height: 770 km
right ascension of ascending node: 9.8474°
argument of perigee: 137.3854°
revolutions per day: 14.37993651
mean anomaly at epoch: 233.1950°
orbit number at epoch: 34141

The dashed part of the orbit path shows where the satellite is in the earth's shadow,  

DLR